353P/McNaught (2026)

Japanese version
Home page
Updated on March 25, 2025

---------------------------------------------------------------------

* Profile

* Orbital Elements

Epoch 2026 July 19.0 TT = JDT 2461240.5
T 2026 July 1.39917 TT                                  MPCW
q   2.2117887            (2000.0)            P               Q
n   0.11576637     Peri.  230.52511     +0.91092167     +0.07417427
a   4.1694724      Node   121.45670     -0.02640196     +0.99217015
e   0.4695279      Incl.   28.41015     -0.41173371     +0.10048172
P   8.51
From 108 observations 2008 May 30-2018 Jan. 4, mean residual 0".5.

* Magnitudes Graph

        m1 = 14.0 + 5 log d + 10.0 log r

---------------------------------------------------------------------

The orbital elements are published on M.P.E.C. 2018-B155.
The magnitudes graphs are made with Comet for Windows.

---------------------------------------------------------------------

Copyright(C) Seiichi Yoshida (comet@aerith.net). All rights reserved.